Location: Bambrugge
(50.9212°N, 3.9299°E)
Time: 13:09:08
(UTC+00:00)

Cosmos 1441 Rocket - Pass Details

Date: 23 May 2024
Orbit: 467 x 502 km, 81.1° (Epoch: 16 June)

Event Time Altitude Azimuth Distance (km) Brightness Sun altitude
Rises 00:21:38 0° 340° (NNW) 2,531 7.7 -17.9°
Reaches altitude 10° 00:23:52 10° 330° (NNW) 1,644 6.5 -17.8°
Maximum altitude 00:27:07 33° 266° (W) 812 4.0 -17.7°
Enters shadow 00:27:37 31° 247° (WSW) 841 3.9 -17.7°
